sat.trackr.live / text

‹ back to catalog

STARLINK-37001

NORAD 68330 · 2026-059K

PAYLOAD ACTIVE UNKNOWN

§ Identity

Operator
Country
US
Launch date
2026-03-22
Launch site
AFETR
Launch vehicle
Mass (kg)
RCS (m²)

Purposes: comms

External: N2YO · Heavens-Above · Gunter

§ Orbital elements

Epoch: 2026-09-19T05:36:57.264768Z

Period
93.85 min
Inclination
53.1563°
Eccentricity
0.0001199
Mean motion
15.34406937 rev/d
Perigee alt
461.9 km
Apogee alt
463.5 km
Semi-major
6,840.8 km
B*
4.4539e-4
RAAN
167.4851°
Arg perigee
81.5059°
Mean anomaly
278.6079°
Rev number
2,783

§ Raw data

STARLINK-370011 68330U 26059K   26262.23399612  .00014705  00000+0  44539-3 0  99992 68330  53.1563 167.4851 0001199  81.5059 278.6079 15.34406937 27836

JSON: /api/v1/satellites/68330 · /tle

For live sub-satellite position, see the globe view (requires WebGL).

§ Visibility from observer

Set your observer location to see the next 7 days of passes ≥ 10°. The values pass through the URL so the page stays shareable.

No JS? Fill the form by hand. The geolocation button needs JavaScript.